Date String (YYYY-MM-DD hh:mm:ss) UTC,Instrument flags,Ambient pressure (hPa),Sample flow (lpm),Bypass flow (lpm),Sample temperature (°C),Ambient temperature (°C),ASC tube jacket temperature (°C),LED temperature (°C),Box temperature (°C),Sample RH (%),Span deviation,Mass concentration (μg/m³),Mass concentration (μg/m³),Mass concentration (μg/m³)
DateTimeUTC,F1_M11,P_M11,Q1_M11,Q2_M11,T1_M11,T2_M11,T3_M11,T4_M11,T5_M11,U1_M11,ZSPAN_M11,X0_M11,X2_M11,X1_M11
2022-10-10 12:00:00,,0828.9,4.99,0.00,27.5,25.9,00.0,36.3,29.3,12.4,0000.0,0007.26,0004.43,0004.04
2022-10-10 12:01:00,,0828.9,5.01,0.00,27.5,25.9,00.0,36.3,29.3,12.7,0000.0,0007.77,0004.52,0004.09
2022-10-10 12:02:00,,0828.9,4.99,0.00,27.5,25.9,00.0,36.3,29.4,12.7,0000.0,0008.46,0004.60,0004.13
2022-10-10 12:03:00,,0828.9,5.00,0.00,27.5,25.9,00.0,36.3,29.3,12.7,0000.0,0008.61,0004.64,0004.18
2022-10-10 12:04:00,,0828.9,5.01,0.00,27.5,25.9,00.0,36.3,29.4,12.7,0000.0,0008.81,0004.72,0004.23
2022-10-10 12:05:00,,0828.9,4.99,0.00,27.5,25.9,00.0,36.3,29.4,12.7,0000.0,0009.14,0004.76,0004.28
2022-10-10 12:06:00,,0828.9,5.01,0.00,27.5,25.9,00.0,36.3,29.4,12.7,0000.0,0009.68,0004.86,0004.33
2022-10-10 12:07:00,,0828.9,4.99,0.00,27.5,25.9,00.0,36.3,29.3,12.7,0000.0,0009.96,0004.96,0004.40
2022-10-10 12:08:00,,0828.9,5.01,0.00,27.5,25.9,00.0,36.3,29.4,12.7,0000.0,0010.30,0005.02,0004.45
2022-10-10 12:09:00,,0828.9,5.00,0.00,27.5,25.9,00.0,36.3,29.4,12.8,0000.0,0011.34,0005.05,0004.50
2022-10-10 12:10:00,,0828.9,4.99,0.00,27.5,25.9,00.0,36.3,29.4,12.7,0000.0,0011.44,0005.10,0004.54
2022-10-10 12:11:00,,0828.9,5.01,0.00,27.4,25.9,00.0,36.3,29.4,12.7,0000.0,0011.48,0005.11,0004.57
2022-10-10 12:12:00,,0828.9,4.99,0.00,27.4,25.9,00.0,36.3,29.4,12.8,0000.0,0011.17,0005.13,0004.58
2022-10-10 12:13:00,,0828.9,5.01,0.00,27.4,25.9,00.0,36.3,29.4,12.8,0000.0,0010.70,0005.13,0004.61
2022-10-10 12:14:00,,0829.0,5.00,0.00,27.4,25.9,00.0,36.2,29.3,12.7,0000.0,0010.66,0005.15,0004.62
2022-10-10 12:15:00,,0828.9,4.99,0.00,27.4,25.9,00.0,36.2,29.3,12.7,0000.0,0010.54,0005.15,0004.62
2022-10-10 12:16:00,,0828.9,5.00,0.00,27.4,25.9,00.0,36.2,29.4,12.7,0000.0,0010.24,0005.17,0004.64
2022-10-10 12:17:00,,0828.8,5.00,0.00,27.4,25.9,00.0,36.2,29.4,12.5,0000.0,0009.72,0005.15,0004.64
2022-10-10 12:18:00,,0828.9,5.01,0.00,27.4,26.0,00.0,36.2,29.4,12.4,0000.0,0009.54,0005.12,0004.63
2022-10-10 12:19:00,,0828.9,4.99,0.00,27.4,25.9,00.0,36.3,29.4,12.4,0000.0,0009.27,0005.11,0004.63
2022-10-10 12:20:00,,0828.8,5.01,0.00,27.4,25.9,00.0,36.2,29.3,12.3,0000.0,0008.47,0005.08,0004.61
2022-10-10 12:21:00,,0828.8,4.99,0.00,27.4,25.9,00.0,36.2,29.3,12.0,0000.0,0008.35,0005.04,0004.58
2022-10-10 12:22:00,,0828.9,5.01,0.00,27.4,25.9,00.0,36.3,29.3,11.9,0000.0,0008.31,0005.00,0004.54
2022-10-10 12:23:00,,0829.0,4.99,0.00,27.4,25.9,00.0,36.3,29.3,11.9,0000.0,0008.08,0004.92,0004.51
2022-10-10 12:24:00,,0829.0,5.01,0.00,27.4,25.9,00.0,36.3,29.3,11.8,0000.0,0008.06,0004.87,0004.47
2022-10-10 12:25:00,,0828.9,4.99,0.00,27.4,25.9,00.0,36.3,29.3,11.8,0000.0,0007.98,0004.84,0004.45
2022-10-10 12:26:00,,0828.9,5.00,0.00,27.4,25.9,00.0,36.2,29.3,11.9,0000.0,0008.04,0004.83,0004.42
2022-10-10 12:27:00,,0828.9,4.99,0.00,27.4,25.8,00.0,36.2,29.3,11.9,0000.0,0008.00,0004.80,0004.38
2022-10-10 12:28:00,,0828.8,5.01,0.00,27.4,25.8,00.0,36.2,29.3,11.9,0000.0,0008.05,0004.78,0004.35
2022-10-10 12:29:00,,0828.8,5.00,0.00,27.4,25.8,00.0,36.2,29.3,11.9,0000.0,0007.98,0004.77,0004.34
2022-10-10 12:30:00,,0828.8,4.99,0.00,27.4,25.8,00.0,36.2,29.3,11.9,0000.0,0008.02,0004.77,0004.32
2022-10-10 12:31:00,,0828.8,5.02,0.00,27.4,25.8,00.0,36.2,29.3,11.9,0000.0,0007.98,0004.77,0004.30
2022-10-10 12:32:00,,0828.9,4.99,0.00,27.4,25.8,00.0,36.2,29.3,11.9,0000.0,0008.20,0004.74,0004.29
2022-10-10 12:33:00,,0828.9,5.00,0.00,27.4,25.8,00.0,36.2,29.3,11.9,0000.0,0008.17,0004.75,0004.30
2022-10-10 12:34:00,,0828.9,4.99,0.00,27.4,25.8,00.0,36.2,29.3,11.9,0000.0,0008.47,0004.79,0004.30
2022-10-10 12:35:00,,0828.8,5.01,0.00,27.4,25.9,00.0,36.2,29.3,11.9,0000.0,0008.54,0004.83,0004.30
2022-10-10 12:36:00,,0828.8,4.99,0.00,27.4,25.9,00.0,36.2,29.3,11.9,0000.0,0008.57,0004.83,0004.30
2022-10-10 12:37:00,,0828.8,5.00,0.00,27.4,25.9,00.0,36.2,29.3,11.9,0000.0,0008.51,0004.79,0004.29
2022-10-10 12:38:00,,0828.9,5.01,0.00,27.4,25.9,00.0,36.2,29.3,11.9,0000.0,0008.51,0004.79,0004.30
2022-10-10 12:39:00,,0828.8,4.98,0.00,27.4,25.9,00.0,36.2,29.3,11.9,0000.0,0008.48,0004.78,0004.30
2022-10-10 12:40:00,,0829.2,5.01,0.00,27.4,25.9,00.0,36.2,29.3,11.8,0000.0,0008.41,0004.75,0004.30
2022-10-10 12:41:00,,0829.3,4.99,0.00,27.4,25.9,00.0,36.2,29.3,11.7,0000.0,0008.32,0004.71,0004.29
2022-10-10 12:42:00,,0829.2,5.00,0.00,27.4,25.9,00.0,36.2,29.3,11.7,0000.0,0008.08,0004.69,0004.28
2022-10-10 12:43:00,,0829.3,5.01,0.00,27.4,26.0,00.0,36.2,29.3,11.6,0000.0,0007.85,0004.68,0004.28
2022-10-10 12:44:00,,0829.3,5.00,0.00,27.4,26.0,00.0,36.2,29.3,11.6,0000.0,0007.79,0004.66,0004.26
2022-10-10 12:45:00,,0829.2,5.01,0.00,27.4,25.9,00.0,36.2,29.3,11.8,0000.0,0007.58,0004.64,0004.25
2022-10-10 12:46:00,,0828.7,4.99,0.00,27.4,26.0,00.0,36.2,29.3,11.8,0000.0,0007.76,0004.59,0004.25
2022-10-10 12:47:00,,0828.7,5.01,0.00,27.4,25.9,00.0,36.2,29.3,11.8,0000.0,0007.76,0004.57,0004.25
2022-10-10 12:48:00,,0828.7,4.99,0.00,27.4,25.9,00.0,36.2,29.3,11.8,0000.0,0007.88,0004.53,0004.25
2022-10-10 12:49:00,,0828.7,5.00,0.00,27.4,25.9,00.0,36.2,29.3,11.8,0000.0,0008.49,0004.51,0004.24
2022-10-10 12:50:00,,0828.7,5.00,0.00,27.4,25.9,00.0,36.2,29.3,11.8,0000.0,0008.79,0004.51,0004.22
2022-10-10 12:51:00,,0828.7,5.00,0.00,27.4,25.9,00.0,36.2,29.3,11.8,0000.0,0008.76,0004.49,0004.21
2022-10-10 12:52:00,,0828.8,5.00,0.00,27.4,25.9,00.0,36.2,29.3,11.5,0000.0,0008.81,0004.47,0004.19
2022-10-10 12:53:00,,0828.9,4.99,0.00,27.4,25.9,00.0,36.2,29.3,11.5,0000.0,0008.86,0004.45,0004.15
2022-10-10 12:54:00,,0829.2,5.01,0.00,27.4,25.9,00.0,36.2,29.2,11.6,0000.0,0009.11,0004.41,0004.11
2022-10-10 12:55:00,,0829.0,5.00,0.00,27.4,25.9,00.0,36.2,29.3,11.4,0000.0,0009.15,0004.37,0004.08
2022-10-10 12:56:00,,0829.0,5.00,0.00,27.4,25.9,00.0,36.2,29.3,11.3,0000.0,0009.04,0004.33,0004.05
2022-10-10 12:57:00,,0829.1,5.00,0.00,27.4,25.8,00.0,36.2,29.3,11.3,0000.0,0008.96,0004.32,0004.02
2022-10-10 12:58:00,,0829.0,4.99,0.00,27.4,25.8,00.0,36.2,29.2,11.3,0000.0,0009.08,0004.28,0003.99
2022-10-10 12:59:00,,0829.0,5.00,0.00,27.4,25.8,00.0,36.2,29.3,11.3,0000.0,0009.09,0004.28,0003.97
